Regional Weather Roundup
Issued by NWS

Home | Current Version | Previous Version | Text Only | Print | Product List | Glossary On
Versions: 1 2 3 4 5 6 7 8 9 10 11 12 13 14 15 16 17 18 19 20 21 22 23 24 25 26 27 28 29 30 31 32 33 34 35 36 37 38 39 40 41 42 43 44 45 46 47 48 49 50
000
ASUS45 KPSR 271710
RWRAZ

ARIZONA REGIONAL HOURLY WEATHER ROUNDUP
NATIONAL WEATHER SERVICE PHOENIX AZ
1000 AM MST SAT DEC 27 2014

NOTE: FAIR INDICATES FEW OR NO CLOUDS BELOW 12,000 FEET WITH NO
SIGNIFICANT WEATHER AND/OR OBSTRUCTIONS TO VISIBILITY.

AZZ001>003-036-271800-
NORTHWEST ARIZONA

CITY           SKY/WX    TMP DP  RH WIND       PRES   REMARKS
BULLHEAD CITY  SUNNY     46  18  31 N18       30.41R
KINGMAN        SUNNY     34  14  43 N6        30.34R WCI  29
$$

AZZ004>008-015-016-018-271800-
NORTH CENTRAL ARIZONA

CITY           SKY/WX    TMP DP  RH WIND       PRES   REMARKS
GRAND CANYON   SUNNY     24   9  52 NE14      30.26R WCI  12
PRESCOTT       SUNNY     27  10  49 CALM      30.27R
FLAGSTAFF      SUNNY     22  12  65 E15G21    30.22R WCI   9
PAYSON         SUNNY     32  14  47 NE9G15    30.26R WCI  24
PAGE           SUNNY     31   5  33 CALM      30.35R
$$

AZZ009>014-017-271800-
NORTHEAST ARIZONA

CITY           SKY/WX    TMP DP  RH WIND       PRES   REMARKS
WINSLOW        SUNNY     29  15  56 NW5       30.32R WCI  24
SAINT JOHNS    SUNNY     22  15  75 NW5       30.26R WCI  16
WINDOW ROCK    SUNNY     12   8  84 CALM      30.25R
SHOW LOW       MOSUNNY   19  16  86 N5        30.26R WCI  13
$$

AZZ023-271800-
GREATER PHOENIX AREA

CITY           SKY/WX    TMP DP  RH WIND       PRES   REMARKS
PHOENIX        SUNNY     44  24  45 CALM      30.29R
BUCKEYE          N/A     45  18  33 N7        30.32R
GLENDALE       SUNNY     45  23  42 N5        30.31R
LUKE AFB       SUNNY     47  20  34 N8        30.29R
DEER VALLEY    SUNNY     46  20  35 NW3       30.28R
SCOTTSDALE     SUNNY     42  24  49 CALM      30.30R
MESA-FALCON    SUNNY     43  19  39 N6        30.29R
MESA-GATEWAY   SUNNY     39  25  56 CALM      30.31R
CHANDLER       SUNNY     41  25  52 CALM      30.30R
$$

AZZ027-028-271800-
SOUTHWEST MARICOPA COUNTY AND PINAL COUNTY

CITY           SKY/WX    TMP DP  RH WIND       PRES   REMARKS
CASA GRANDE    SUNNY     39  21  48 CALM      30.30R
GILA BEND      FAIR      45  19  35 N6        30.33R
$$

AZZ503-504-507>509-271800-
SOUTHEAST ARIZONA

CITY           SKY/WX    TMP DP  RH WIND       PRES   REMARKS
TUCSON         SUNNY     30  25  81 SE3       30.27R
DAVIS-MONTHAN  SUNNY     38  22  52 CALM      30.25R
RYAN FIELD       N/A     39  30  70 CALM      30.28R
NOGALES        SUNNY     36  19  50 W3        30.20R
SIERRA VISTA   SUNNY     36  14  40 N6        30.20R WCI  31
DOUGLAS        SUNNY     38  17  42 N10       30.20R WCI  31
SAFFORD        SUNNY     36  19  50 W3        30.26R
$$

AZZ020-021-025-026-031-271800-
SOUTHWEST ARIZONA

CITY           SKY/WX    TMP DP  RH WIND       PRES   REMARKS
YUMA           SUNNY    N/A N/A N/A N14       30.35S
$$

CAZ031-033-041-043-047-048-061-271800-
SOUTHERN CALIFORNIA

CITY           SKY/WX    TMP DP  RH WIND       PRES   REMARKS
DOWNTOWN L.A.  SUNNY     48  27  44 CALM      30.31R
L.A. AIRPORT   MOSUNNY   50  24  36 E3        30.32R
SAN DIEGO      SUNNY     53  28  38 CALM      30.32R
BURBANK        SUNNY     50  19  29 CALM      30.30R
ONTARIO        MOSUNNY   52  20  28 NE8       30.30R
RIVERSIDE      SUNNY     53   7  15 NE9G26    30.33R
PALM SPRINGS   SUNNY     54   8  16 CALM      30.42R
EL CENTRO NAS  SUNNY     54  21  27 N13       30.39R
IMPERIAL       SUNNY     53  19  26 NW7       30.39R
BLYTHE         SUNNY     51  12  21 N13       30.37R
NEEDLES        SUNNY     49  16  26 NE20      30.38R
$$

NVZ020-UTZ003-271800-
SOUTHERN NEVADA-UTAH

CITY           SKY/WX    TMP DP  RH WIND       PRES   REMARKS
LAS VEGAS      MOSUNNY   42  11  28 N5        30.38R
SALT LAKE CITY MOSUNNY   22  14  71 S10       30.37R WCI  11
$$

NMZ009-TXZ055-271800-
NEW MEXICO-WEST TEXAS

CITY           SKY/WX    TMP DP  RH WIND       PRES   REMARKS
ALBUQUERQUE    MOSUNNY   28  15  58 N8        30.27R WCI  20
EL PASO        CLOUDY    38  33  82 CALM      30.24R
$$


........................KEY........................
SKY/WX - SKY CONDITION/WEATHER
TMP    - TEMPERATURE IN FAHRENHEIT
DP     - DEW POINT IN FAHRENHEIT
RH     - RELATIVE HUMIDITY IN PERCENT
WIND   - DIRECTION AND SPEED IN MILES PER HOUR (MPH)
VRB    - VARIABLE WIND DIRECTION
PRES   - MEAN SEA LEVEL PRESSURE IN INCHES OF MERCURY
         F - FALLING PRESSURE   R - RISING PRESSURE
         S - STEADY PRESSURE
VSB    - VISIBILITY IN MILES
HX     - HEAT INDEX IN FAHRENHEIT
WCI    - WIND CHILL INDEX IN FAHRENHEIT
TC     - TEMPERATURE IN CELSIUS WHICH IS ALSO KNOWN AS
         TEMPERATURE IN CENTIGRADE
AFB    - AIR FORCE BASE
         LUKE AFB IS LUKE AIR FORCE BASE
         DAVIS-MONTHAN IS DAVIS-MONTHAN AIR FORCE BASE
NAS    - NAVAL AIR STATION
         EL CENTRO NAS IS EL CENTRO NAVAL AIR STATION
N/A    - NOT AVAILABLE


USA.gov is the U.S. government's official web portal to all federal, state and local government web resources and services.